Location: ????????
(38.4362°N, 22.8767°E)
Time: 15:10:04
(UTC+00:00)

ACS3 Solar Sail - Pass Details

Date: 03 July 2024
Orbit: 993 x 1023 km, 97.4° (Epoch: 19 July)

Event Time Altitude Azimuth Distance (km) Brightness Sun altitude
Exits shadow 20:37:05 22° 209° (SSW) 2,009 6.1 -23.0°
Maximum altitude 20:40:30 40° 264° (W) 1,438 5.8 -23.3°
Drops below altitude 10° 20:46:17 10° 333° (NNW) 2,763 8.3 -23.8°
Sets 20:48:58 0° 341° (NNW) 3,717 9.2 -24.0°
